Location: Ravensburg
(47.7866°N, 9.6124°E)
Time: 09:46:50
(UTC+02:00)

YUBILEINY - Pass Details

Date: 22 March 2026
Orbit: 1477 x 1509 km, 82.5° (Epoch: 17 April)

Event Time Altitude Azimuth Distance (km) Brightness Sun altitude
Rises 00:03:39 0° 354° (N) 4,620 ? -41.4°
Reaches altitude 10° 00:09:29 10° 24° (NNE) 3,630 ? -41.5°
Maximum altitude 00:12:24 12° 44° (NE) 3,481 ? -41.5°
Drops below altitude 10° 00:15:18 10° 64° (ENE) 3,622 ? -41.6°
Enters shadow 00:20:24 - 92° (E) 4,451 ? -41.6°
